Regional Weather Roundup
Issued by NWS Charleston, WV

Home | Current Version | Previous Version | Graphics & Text | Print | Product List | Glossary On
Versions: 1 2 3 4 5 6 7 8 9 10 11 12 13 14 15 16 17 18 19 20 21 22 23 24 25 26 27 28 29 30 31 32 33 34 35 36 37 38 39 40 41 42 43 44 45 46 47 48 49 50
000
ASUS41 KRLX 040610
RWRRLX
West Virginia Regional Weather Roundup
National Weather Service Charleston WV
200 AM EDT MON MAY 04 2015

Note: "fair" indicates few or no clouds below 12,000 feet with no
significant weather and/or obstructions to visibility.

WVZ003-040700-
Northern Panhandle of West Virginia

CITY           SKY/WX    TMP DP  RH WIND       PRES   REMARKS
WHEELING       CLEAR     62  37  39 SE5       30.13F
$$

WVZ009-040700-
Northwest West Virginia

CITY           SKY/WX    TMP DP  RH WIND       PRES   REMARKS
PARKERSBURG    CLEAR     53  44  71 CALM      30.15F
$$

WVZ006-040700-
Western West Virginia

CITY           SKY/WX    TMP DP  RH WIND       PRES   REMARKS
HUNTINGTON     CLEAR     53  47  79 CALM      30.12F
$$

WVZ015-040700-
West Central West Virginia

CITY           SKY/WX    TMP DP  RH WIND       PRES   REMARKS
CHARLESTON     CLEAR     52  44  74 CALM      30.14F
$$

WVZ022-031-040700-
North Central West Virginia

CITY           SKY/WX    TMP DP  RH WIND       PRES   REMARKS
CLARKSBURG     CLEAR     50  42  74 CALM      30.16S
MORGANTOWN     CLEAR     55  38  52 CALM      30.17S
$$

WVZ025-035-042-045-040700-
Southern West Virginia

CITY           SKY/WX    TMP DP  RH WIND       PRES   REMARKS
BECKLEY        CLEAR     58  40  51 SE5       30.21F
LOGAN            N/A     59  39  47 CALM      30.14S
BLUEFIELD      CLEAR     63  44  50 S5        30.24S
LEWISBURG      CLEAR     49  40  70 N6        30.22F
$$

WVZ047-040700-
Northern Mountains of West Virginia

CITY           SKY/WX    TMP DP  RH WIND       PRES   REMARKS
ELKINS         CLEAR     43  40  89 CALM      30.22S
$$

WVZ052-040700-
Eastern Panhandle of West Virginia

CITY           SKY/WX    TMP DP  RH WIND       PRES   REMARKS
MARTINSBURG    CLEAR     51  45  79 S3        30.16S
PETERSBURG     CLEAR     47  43  85 CALM      30.20S
$$


USA.gov is the U.S. government's official web portal to all federal, state and local government web resources and services.